Regional Weather Roundup
Issued by NWS Boston, MA

Home | Current Version | Previous Version | Text Only | Print | Product List | Glossary On
Versions: 1 2 3 4 5 6 7 8 9 10 11 12 13 14 15 16 17 18 19 20 21 22 23 24 25 26 27
000
ASUS41 KBOX 270110
RWRBOX

REGIONAL WEATHER ROUNDUP
NATIONAL WEATHER SERVICE TAUNTON MA
900 PM EDT WED APR 26 2017

NOTE:  "FAIR" INDICATES FEW OR NO CLOUDS BELOW 12,000 FEET WITH NO
SIGNIFICANT WEATHER AND/OR OBSTRUCTIONS TO VISIBILITY.

MAZALL-270200-
EASTERN MASSACHUSETTS

CITY           SKY/WX    TMP DP  RH WIND       PRES   REMARKS
BOSTON         FOG       49  49 100 NE7       29.82S VSB 1/16
BEVERLY        FOG       53  53 100 E5        29.83S VSB 1/2
LAWRENCE       FOG       53  51  93 NE8       29.85S VSB 1
BEDFORD        CLOUDY    54  51  90 N7        29.83R FOG
BLUE HILL        N/A     52  51  97 NE3       29.80R
NORWOOD        FOG       53  53 100 NW3       29.82R VSB 1
MARSHFIELD     FOG       52  52 100 SE6       29.82S VSB 1/4
PLYMOUTH       CLOUDY    55  53  93 SE3       29.82R
TAUNTON        CLOUDY    57  55  93 E8        29.80F
NEW BEDFORD    FOG       54  54 100 E7        29.80S VSB 1/4
$$

MAZALL-270200-
CAPE COD AND THE ISLANDS

CITY           SKY/WX    TMP DP  RH WIND       PRES   REMARKS
FALMOUTH         N/A    N/A N/A N/A MISG        N/A
HYANNIS        FOG       52  52 100 SE7       29.82R VSB 1/2
CHATHAM        FOG       51  51 100 VRB5      29.85R VSB 1/2
PROVINCETOWN   CLOUDY    54  54 100 SE14      29.83F FOG
NANTUCKET      FOG       51  49  92 SE9       29.84S VSB 1/2
MARTHAS VNYRD  FOG       51  50  96 E10       29.82R VSB 3/4
$$

MAZALL-270200-
CENTRAL AND WESTERN MASSACHUSETTS

CITY           SKY/WX    TMP DP  RH WIND       PRES   REMARKS
WORCESTER      FOG       54  52  93 NE6       29.83R VSB 1/2
FITCHBURG      CLOUDY    57  55  93 N3        29.84R FOG
ORANGE         CLOUDY    56  55  97 N5        29.84R
SPRINGFIELD    CLOUDY    57  55  94 N3        29.83R
WESTFIELD      CLOUDY    57  57 100 NE5       29.83R FOG
NORTH ADAMS    CLOUDY    58  53  84 E8        29.83R
PITTSFIELD     CLOUDY    56  53  90 E5        29.82R
$$

RIZALL-270200-
RHODE ISLAND

CITY           SKY/WX    TMP DP  RH WIND       PRES   REMARKS
PROVIDENCE     LGT RAIN  59  59 100 CALM      29.81R
NEWPORT        FOG       53  53 100 SE10      29.80R VSB 1/4
BLOCK ISLAND   CLOUDY    51  51 100 CALM      29.81R FOG
SMITHFIELD     CLOUDY    58  58 100 NE5       29.81S FOG
WESTERLY       CLOUDY    57  56  96 CALM      29.82R
$$

CTZALL-270200-
CONNECTICUT

CITY           SKY/WX    TMP DP  RH WIND       PRES   REMARKS
BRADLEY INTL   DRIZZLE   57  57 100 N6        29.84R FOG
HARTFORD       CLOUDY    59  57  93 N5        29.83R
BRIDGEPORT     CLOUDY    57  54  89 CALM      29.82R
DANBURY        CLOUDY    59  56  89 E6        29.83R
GROTON         CLOUDY    55  53  93 CALM      29.81R FOG
NEW HAVEN      CLOUDY    54  53  97 CALM      29.83R
CHESTER        CLOUDY    59  59 100 CALM      29.83R FOG
MERIDEN        LGT RAIN  61  56  83 NW5       29.83R
WILLIMANTIC    CLOUDY    61  59  93 N3        29.83R FOG
OXFORD         CLOUDY    57  52  82 CALM      29.84R
$$

MEZ002-015-021-024-NHZ003-005-008-011-012-014-VTZ005-008-270200-
NORTHERN NEW ENGLAND

CITY           SKY/WX    TMP DP  RH WIND       PRES   REMARKS
PORTLAND ME    CLOUDY    51  50  96 E9        29.90F FOG
BANGOR ME      LGT RAIN  56  55  97 S6        29.98R FOG
CONCORD NH     CLOUDY    55  53  93 E7        29.86R
MANCHESTER NH  DRIZZLE   55  52  89 NE7       29.84R FOG
NASHUA NH      LGT RAIN  54  54 100 E5        29.86R FOG
PORTSMOUTH NH  DRZL/FOG  52  52  99 NE7       29.85S VSB 1/2
JAFFREY NH     CLOUDY    54  54 100 VRB3      29.86R FOG
KEENE NH       CLOUDY    56  53  90 N6        29.86R
BURLINGTON VT  CLOUDY    62  55  77 SE10      29.80R
MT. WASHINGTON FOG       46  46 100 SE32G38     N/A  VSB 1/16
$$

NYZ052-076-270200-
EASTERN NEW YORK

CITY           SKY/WX    TMP DP  RH WIND       PRES   REMARKS
ALBANY         CLOUDY    66  57  72 S8        29.80R
NEW YORK CITY  CLOUDY    61  57  87 NE5       29.80S FOG
$$

ANZALL-270200-
MARINE OBSERVATIONS

STATION/POSITION TIME  TEMP    WIND        PRES    VSBY  WAVE
                       AIR SEA DIR/SP/G                  HT/PER
                 (UTC) (F)     (DEG/KT/KT) (MB)    (MI)  (FT/S)
BOSTON BUOY      2350   49 47  100/ 12/ 14 1009.0          6/ 7
BUZZARDS BAY     0000   49     130/  9/ 10 1009.5R
NANTUCKET SOUND  0050      48              1010.0R         2/ 3
MASS BAY-STELLWA 0004   48 45  100/ 12/ 14 1009.5F         5/ 7
ISLE OF SHOALS   0000   49      60/ 12/ 15 1010.8F
S OF BLOCK IS    0055      47                N/A          11/10
$$

......................KEY.........................
  SKY/WX - SKY CONDITION/PRESENT WEATHER
  TMP    - TEMPERATURE IN FAHRENHEIT
  DWPT   - DEWPOINT IN FAHRENHEIT
  RH     - RELATIVE HUMIDITY IN PERCENT
  WIND   - DIRECTION AND SPEED IN MPH
  PRES   - MEAN SEA LEVEL PRESSURE IN INCHES OF HG
  WCI    - WIND CHILL INDEX
  VSB    - VISIBILITY IN MILES
  HX     - HEAT INDEX
  TC     - TEMPERATURE IN CELSIUS
  VRB    - VARIABLE WIND DIRECTION
  N/A    - NOT AVAILABLE




USA.gov is the U.S. government's official web portal to all federal, state and local government web resources and services.